Location: Narrabri
(30.3170°S, 149.7830°E)
Time: 16:03:06
(UTC+11:00)

Tiangong 2 - Visible Passes

Search period start: 18 December 2017 00:00
Search period end: 28 December 2017 00:00
Orbit: 386 x 389 km, 42.8° (Epoch: 17 December)

Date Brightness Start Highest point End Pass type
(mag) Time Alt. Az. Time Alt. Az. Time Alt. Az.
23 Dec 3.7 05:06:26 10° N 05:08:07 14° NE 05:09:49 10° ENE visible
25 Dec 2.5 04:46:12 19° N 04:47:46 30° NE 04:50:40 10° ESE visible
26 Dec 3.8 03:50:27 13° ENE 03:50:27 13° ENE 03:51:18 10° ENE visible
26 Dec 1.6 05:22:50 10° WNW 05:25:59 53° SSW 05:29:10 10° SE visible
27 Dec 1.1 04:26:54 54° NNW 04:27:29 72° NE 04:30:43 10° ESE visible
